2024/02/06 00:00:00,31.9, 0.5
2024/02/06 00:10:00,32.2, 0.3
2024/02/06 00:20:00,32.3, 0.3
2024/02/06 00:30:00,32.3, 0.4
2024/02/06 00:40:00,32.2, 0.7
2024/02/06 00:50:00,32.2, 0.1
2024/02/06 01:00:00,32.2, 0.1
2024/02/06 01:10:00,32.2, 0.4
2024/02/06 01:20:00,32.4, 0.3
2024/02/06 01:30:00,32.5, 0.3
2024/02/06 01:40:00,32.8, 0.2
2024/02/06 01:50:00,33.0, 0.0
2024/02/06 02:00:00,33.1, 0.1
2024/02/06 02:10:00,33.0, 0.4
2024/02/06 02:20:00,32.9, 0.2
2024/02/06 02:30:00,32.9, 0.2
2024/02/06 02:40:00,32.8, 0.4
2024/02/06 02:50:00,32.7, 0.5
2024/02/06 03:00:00,32.6, 0.4
2024/02/06 03:10:00,32.6, 0.5
2024/02/06 03:20:00,32.6, 0.5
2024/02/06 03:30:00,32.6, 0.3
2024/02/06 03:40:00,32.5, 0.3
2024/02/06 03:50:00,32.8, 0.1
2024/02/06 04:00:00,33.0, 0.4
2024/02/06 04:10:00,33.4, 0.2
2024/02/06 04:20:00,33.8, 0.2
2024/02/06 04:30:00,33.8, 0.4
2024/02/06 04:40:00,33.8, 0.3
2024/02/06 04:50:00,33.8, 0.3
2024/02/06 05:00:00,33.7, 0.4
2024/02/06 05:10:00,33.7, 0.4
2024/02/06 05:20:00,33.8, 0.3
2024/02/06 05:30:00,34.1, 0.1
2024/02/06 05:40:00,34.1, 0.4
2024/02/06 05:50:00,34.1, 0.4
2024/02/06 06:00:00,34.1, 0.3
2024/02/06 06:10:00,34.5, 0.0
2024/02/06 06:20:00,34.5, 0.4
2024/02/06 06:30:00,34.5, 0.2
2024/02/06 06:40:00,34.4, 0.2
2024/02/06 06:50:00,34.5, 0.3
2024/02/06 07:00:00,34.7, 0.2
2024/02/06 07:10:00,35.0, 0.3
2024/02/06 07:20:00,35.2, 0.2
2024/02/06 07:30:00,35.3, 0.3
2024/02/06 07:40:00,35.3, 0.0
2024/02/06 07:50:00,35.3, 0.4
2024/02/06 08:00:00,35.3, 0.5
2024/02/06 08:10:00,35.5, 0.6
2024/02/06 08:20:00,35.8, 0.4
2024/02/06 08:30:00,35.8, 0.7
2024/02/06 08:40:00,35.9, 0.9
2024/02/06 08:50:00,35.8, 1.2
2024/02/06 09:00:00,35.9, 1.1
2024/02/06 09:10:00,35.9, 0.9
2024/02/06 09:20:00,36.0, 1.0
2024/02/06 09:30:00,36.2, 1.1
2024/02/06 09:40:00,36.3, 0.8
2024/02/06 09:50:00,36.4, 0.8
2024/02/06 10:00:00,36.3, 1.1
2024/02/06 10:10:00,36.3, 1.1
2024/02/06 10:20:00,36.4, 1.4
2024/02/06 10:30:00,36.7, 1.4
2024/02/06 10:40:00,36.7, 1.6
2024/02/06 10:50:00,36.7, 2.0
2024/02/06 11:00:00,36.8, 1.4
2024/02/06 11:10:00,36.9, 1.2
2024/02/06 11:20:00,36.9, 1.2
2024/02/06 11:30:00,36.7, 1.1
2024/02/06 11:40:00,36.7, 0.9
2024/02/06 11:50:00,36.6, 1.4
2024/02/06 12:00:00,36.4, 1.4
2024/02/06 12:10:00,36.3, 1.3
2024/02/06 12:20:00,36.3, 1.4
2024/02/06 12:30:00,36.4, 1.5
2024/02/06 12:40:00,36.4, 1.4
2024/02/06 12:50:00,36.3, 1.4
2024/02/06 13:00:00,36.3, 0.9
2024/02/06 13:10:00,36.3, 1.1
2024/02/06 13:20:00,36.3, 1.4
2024/02/06 13:30:00,36.3, 1.1
2024/02/06 13:40:00,36.3, 1.5
2024/02/06 13:50:00,36.3, 1.3
2024/02/06 14:00:00,36.3, 1.1
2024/02/06 14:10:00,36.3, 1.1
2024/02/06 14:20:00,36.3, 1.1
2024/02/06 14:30:00,36.2, 1.2
2024/02/06 14:40:00,36.1, 0.9
2024/02/06 14:50:00,36.1, 1.3
2024/02/06 15:00:00,36.1, 1.1
2024/02/06 15:10:00,36.0, 0.9
2024/02/06 15:20:00,35.9, 1.1
2024/02/06 15:30:00,35.9, 1.4
2024/02/06 15:40:00,35.9, 1.1
2024/02/06 15:50:00,35.8, 0.8
2024/02/06 16:00:00,35.8, 0.9
2024/02/06 16:10:00,35.8, 0.9
2024/02/06 16:20:00,36.0, 1.0
2024/02/06 16:30:00,36.0, 0.8
2024/02/06 16:40:00,35.9, 0.9
2024/02/06 16:50:00,35.9, 0.8
2024/02/06 17:00:00,36.0, 0.8
2024/02/06 17:10:00,36.0, 0.8
2024/02/06 17:20:00,36.0, 0.7
2024/02/06 17:30:00,36.0, 0.5
2024/02/06 17:40:00,36.0, 0.4
2024/02/06 17:50:00,35.9, 0.3
2024/02/06 18:00:00,35.9, 0.3
2024/02/06 18:10:00,36.0,-0.2
2024/02/06 18:20:00,35.9, 0.1
2024/02/06 18:30:00,35.9, 0.1
2024/02/06 18:40:00,35.9, 0.3
2024/02/06 18:50:00,35.8, 0.0
2024/02/06 19:00:00,35.8, 0.3
2024/02/06 19:10:00,35.7, 0.0
2024/02/06 19:20:00,35.7, 0.4
2024/02/06 19:30:00,35.7,-0.1
2024/02/06 19:40:00,35.7, 0.0
2024/02/06 19:50:00,35.7,-0.1
2024/02/06 20:00:00,36.0, 0.4
2024/02/06 20:10:00,36.1,-0.5
2024/02/06 20:20:00,36.0,-0.1
2024/02/06 20:30:00,36.0, 0.2
2024/02/06 20:40:00,36.0, 0.0
2024/02/06 20:50:00,36.0, 0.0
2024/02/06 21:00:00,36.0, 0.0
2024/02/06 21:10:00,36.0, 0.1
2024/02/06 21:20:00,35.9, 0.3
2024/02/06 21:30:00,35.9,-0.3
2024/02/06 21:40:00,35.9, 0.3
2024/02/06 21:50:00,35.9, 0.2
2024/02/06 22:00:00,35.8, 0.3
2024/02/06 22:10:00,35.8, 0.5
2024/02/06 22:20:00,35.9, 0.3
2024/02/06 22:30:00,35.9, 0.5
2024/02/06 22:40:00,35.9, 0.2
2024/02/06 22:50:00,36.0, 0.3
2024/02/06 23:00:00,36.1, 0.0
2024/02/06 23:10:00,36.1,-0.2
2024/02/06 23:20:00,36.1, 0.2
2024/02/06 23:30:00,36.0, 0.2
2024/02/06 23:40:00,36.0, 0.1
2024/02/06 23:50:00,36.0, 0.4
